Вернуться в каталог

STARLINK-6170

АктивенСвязьVLEO
NORAD 57129·PAYLOAD·🇺🇸 United States

Запущен Jun 23, 2023 с Cape Canaveral Space Force Station

Loading…

Ближайшие Пролёты (ближайшие 24 часа)

TLE

СвежийSource: CelesTrak SupGP

Эпоха: Sep 15, 2026, 01:45 UTC

1 57129C 23090AE  26258.07340278  .00009000  00000+0  32602-3 0  2584
2 57129  43.0009 274.2910 0000840 307.5864 336.3147 15.27571388    17

Отслеживайте STARLINK-6170 в реальном времени с AllMySat

Download on the App Store